Погода в Заречье

Россия / Курская область     51°33′11″N   37°20′10″E
темп.,
°C
ветер,
м/с
пор.,
м/с
влажн.,
%
обл.,
%
осадки,
мм/ч
давл.,
гПа
погр.,
м
7 марта, вс
вс700:00−9з47910 0.0 1021154
03:00−10з48920 0.0 1021173
06:00−9зюз5109685 0.0 1019254
09:00−6зюз8158386 0.0 1016651
12:00−3юз101674100 0.0 1013995
15:00−1зюз111971100 0.0 10091303
18:00−2зюз111990100 0.1 10061178
21:00−1зюз111992100 0.3 10051126
8 марта, пн
пн800:00−1з81492100 0.6 1005895
03:00−3з3692100 3.3 1005368
06:00−4з1297100 1.1 100560
09:00−3з51193100 1.6 1005669
12:00−2з7108396 0.4 10061163
15:00−2з798197 0.6 10071164
18:00−5з498797 0.1 1008222
21:00−6з4109399 0.1 1010306
9 марта, вт
вт900:00−7зсз4894100 0.1 1011236
03:00−11сз349676 0.2 101270
06:00−11сз369596 0.1 1014150
09:00−11зсз369583 0.1 1015207
12:00−8зсз4691100 0.0 1017459
15:00−7сз5685100 0.1 1018840
18:00−10сз4792100 0.1 1019212
21:00−13сз349379 0.1 102164
10 марта, ср
ср1000:00−15сз33950 0.0 102243
03:00−16сз23950 0.0 102422
06:00−17сз23960 0.0 102522
09:00−15ссз23930 0.0 1026117
12:00−12с228332 0.0 1026310
15:00−10ссв118067 0.0 1026363
18:00−12в1188100 0.0 102621
21:00−14в128994 0.0 102720
11 марта, чт
чт1100:00−15в338983 0.0 102834
03:00−15вюв238982 0.0 102922
06:00−15юв238771 0.0 102923
09:00−12ююв358767 0.0 1029166
12:00−7ю467748 0.0 1029498
15:00−4ю467230 0.0 1028854
18:00−7ююв34730 0.0 102740
21:00−8ююв48730 0.0 1027112